Location: Zagreb
(45.8000°N, 16.0000°E)
Time: 23:47:30
(UTC+01:00)

Transit 2A Rocket - Pass Details

Date: 07 October 2020
Orbit: 586 x 916 km, 66.7° (Epoch: 27 October)

Event Time Altitude Azimuth Distance (km) Brightness Sun altitude
Rises 19:13:32 0° 297° (WNW) 3,545 9.7 -9.4°
Reaches altitude 10° 19:19:30 10° 342° (NNW) 2,552 8.0 -10.5°
Maximum altitude 19:19:55 10° 346° (NNW) 2,542 7.9 -10.5°
Drops below altitude 10° 19:20:19 10° 350° (N) 2,542 7.9 -10.6°
Sets 19:26:04 0° 36° (NE) 3,388 8.0 -11.6°
